Regional Weather Roundup
Issued by NWS

Home | Current Version | Previous Version | Graphics & Text | Print | Product List | Glossary On
Versions: 1 2 3 4 5 6 7 8 9 10 11 12 13 14 15 16 17 18 19 20 21 22 23 24 25 26 27 28 29 30 31 32 33 34 35 36 37 38 39 40 41 42 43 44 45 46 47 48 49 50
000
ASUS45 KSLC 221210
RWRUT

UTAH REGIONAL WEATHER ROUNDUP
NATIONAL WEATHER SERVICE SALT LAKE CITY UT
500 AM MST WED NOV 22 2017

UTZ001>011-023>025-221300-

NORTHERN UTAH

CITY           SKY/WX    TMP DP  RH WIND       PRES   REMARKS
BRIGHAM CITY   CLOUDY    46  41  82 CALM      30.40F
DUGWAY         PTCLDY    33  31  92 E5        30.40  WCI  28
6HR MIN TEMP:  32; 6HR MAX TEMP:  39;

HILL AFB       MOCLDY    48  38  67 E9        30.40R
LOGAN          CLOUDY    47  43  86 CALM      30.38S
OGDEN          CLOUDY    47  39  74 S6        30.39R
SALT LAKE CITY PTCLDY    44  38  79 SE6       30.39S
TOOELE VALLEY  PTCLDY    45  37  76 CALM      30.40S
WENDOVER       CLEAR     36  32  85 CALM      30.40R
HEBER CITY       N/A     30  30 100 CALM      30.45S
WEST JORDAN    PTCLDY    45  39  79 S5        30.41R

$$

UTZ011>015-024>027-221300-

CENTRAL/NORTHEAST UTAH

CITY           SKY/WX    TMP DP  RH WIND       PRES   REMARKS
PROVO AIRPORT  PTCLDY    41  35  79 S7        30.44R
MOAB/CANYONLAN MOCLDY    35  13  40 CALM      30.41S
DELTA          MOCLDY    34  28  80 CALM      30.43R
PRICE          PTCLDY    34  25  69 E5        30.43S WCI  30
RICHFIELD      CLEAR     28  28 100 CALM      30.48R
ROOSEVELT      CLOUDY    36  30  80 CALM      30.43S
VERNAL         CLOUDY    37  30  75 W5        30.41R WCI  33

$$

UTZ013>016-019>022-027-221300-

SOUTHERN UTAH

CITY           SKY/WX    TMP DP  RH WIND       PRES   REMARKS
BRYCE CANYON   PTCLDY    28  26  92 NW5       30.50R WCI  23
CEDAR CITY     PTCLDY    33  31  92 CALM      30.41S
MILFORD        PTCLDY    32  28  85 SW3       30.41S
ST GEORGE      MOSUNNY   43  17  35 CALM      30.34R
HANKSVILLE     MOCLDY    30  10  43 CALM      30.44S
KANAB          CLEAR     37  28  70 NE6       30.41S WCI  33
BLANDING         N/A     37  28  68 N6        30.48S WCI  33

$$

REGIONAL REPORTS     COLORADO/ARIZONA

CITY           SKY/WX    TMP DP  RH WIND       PRES   REMARKS
CRAIG, CO      CLOUDY    32  29  88 SE3       30.44R
GRAND JUNCTION CLOUDY    37  29  72 E9        30.42S WCI  30
RIFLE, CO      CLOUDY    30  29  96 CALM      30.46S
MONTROSE, CO   CLOUDY    31  27  85 SE9       30.48S WCI  23
CORTEZ, CO     CLOUDY    28  22  78 E6        30.41S WCI  22
COLORADO CITY    N/A     32  23  69 CALM      30.41R
PAGE, AZ       MOCLDY    42  24  49 CALM      30.37S
GRAND CANYON   MOCLDY    30  22  72 NE5       30.43S SMOKE   WCI  25
KINGMAN, AZ    PTCLDY    49  21  33 CALM      30.27S
FLAGSTAFF, AZ  PTCLDY    41  27  57 E6        30.43S

$$

REGIONAL REPORTS    NEVADA/IDAHO/WYOMING

CITY           SKY/WX    TMP DP  RH WIND       PRES   REMARKS
LAS VEGAS, NV  PTCLDY    55  32  41 W5        30.24S
ELY, NY        CLEAR     29  26  89 S14       30.46S WCI  18
ELKO, NV       MOCLDY    34  33  96 E6        30.39S FOG     WCI  29
POCATELLO, ID  CLOUDY    41  40  96 E5        30.34F
BURLEY, ID     CLOUDY    43  41  93 CALM      30.32S
FORT BRIDGER,  PTSUNNY   44  37  77 SW8       30.46F
EVANSTON, WY   CLOUDY    41  36  82 SW12      30.46R
ROCK SPRINGS,  CLOUDY    42  34  73 W23       30.39S
KEMMERER, WY   CLOUDY    39  36  87 SW7       30.44S WCI  34

$$



USA.gov is the U.S. government's official web portal to all federal, state and local government web resources and services.